Location: Broekland
(52.3610°N, 6.2005°E)
Time: 16:49:46
(UTC+00:00)

ACS3 Solar Sail - Pass Details

Date: 24 January 2026
Orbit: 900 x 968 km, 97.2° (Epoch: 10 February)

Event Time Altitude Azimuth Distance (km) Brightness Sun altitude
Rises 03:11:08 0° 9° (N) 3,638 5.1 -38.6°
Reaches altitude 10° 03:13:46 10° 2° (N) 2,678 4.3 -38.2°
Enters shadow 03:14:05 12° 0° (N) 2,566 4.1 -38.2°
